This is the latest recevied weather packets stored in our database for station/object DN9EM-2. If no packets are shown the sender has not sent any weather packets the latest 10 day(s).
| Time | Temp. | Humidity | Pressure | Rain* | Wind** | Luminosity | Snow |
|---|---|---|---|---|---|---|---|
| 1777667446 | 15° C | 59% | 1024.4 hPa | 0 mm | - | - | - |
| 1777666843 | 15° C | 60% | 1024.6 hPa | 0 mm | - | - | - |
| 1777666241 | 15.56° C | 58% | 1024.6 hPa | 0 mm | - | - | - |
| 1777665638 | 16.11° C | 56% | 1024.7 hPa | 0 mm | - | - | - |
| 1777665035 | 16.67° C | 54% | 1024.8 hPa | 0 mm | - | - | - |
| 1777664433 | 16.67° C | 54% | 1024.7 hPa | 0 mm | - | - | - |
| 1777663830 | 17.22° C | 54% | 1024.7 hPa | 0 mm | - | - | - |
| 1777663228 | 17.78° C | 51% | 1024.8 hPa | 0 mm | - | - | - |
| 1777662625 | 17.78° C | 51% | 1024.8 hPa | 0 mm | - | - | - |
| 1777662022 | 18.33° C | 50% | 1024.8 hPa | 0 mm | - | - | - |
| 1777661420 | 18.33° C | 48% | 1024.9 hPa | 0 mm | - | - | - |
| 1777660817 | 18.33° C | 50% | 1024.8 hPa | 0 mm | - | - | - |
| 1777660275 | 18.89° C | 51% | 1024.9 hPa | 0 mm | - | - | - |
| 1777659672 | 18.89° C | 51% | 1024.9 hPa | 0 mm | - | - | - |
| 1777659070 | 20° C | 49% | 1025 hPa | 0 mm | - | - | - |
| 1777658467 | 20° C | 46% | 1025 hPa | 0 mm | - | - | - |
| 1777657864 | 20.56° C | 45% | 1025 hPa | 0 mm | - | - | - |
| 1777657261 | 21.11° C | 44% | 1025 hPa | 0 mm | - | - | - |
| 1777656659 | 21.11° C | 44% | 1025.1 hPa | 0 mm | - | - | - |
| 1777656056 | 21.11° C | 45% | 1025.2 hPa | 0 mm | - | - | - |
| 1777655454 | 21.67° C | 43% | 1025.3 hPa | 0 mm | - | - | - |
| 1777654851 | 21.67° C | 44% | 1025.2 hPa | 0 mm | - | - | - |
| 1777654248 | 21.67° C | 43% | 1025.6 hPa | 0 mm | - | - | - |
| 1777653646 | 21.67° C | 42% | 1025.7 hPa | 0 mm | - | - | - |
| 1777653043 | 22.22° C | 41% | 1025.7 hPa | 0 mm | - | - | - |
* Rain latest hour (hover to see other rain measurements)
** Current wind speed in m/s (hover to see current wind gust speed)